| time (UTC) | temp C | wind direction | speed KPH | gust KPH | rain 1hr cm | rain 24hr cm | rain mn cm | humidity % | barometer mb |
| 20260506081003 | 13 | 328 | 4.8 | 11.3 | 0.00 | 0.00 | 0.00 | 55 | 1016.9 |
| 20260506080503 | 13 | 326 | 4.8 | 11.3 | 0.00 | 0.00 | 0.00 | 54 | 1016.8 |
| 20260506073503 | 12 | 327 | 3.2 | 6.4 | 0.00 | 0.00 | 0.00 | 59 | 1016.7 |
| 20260506073003 | 12 | 324 | 3.2 | 6.4 | 0.00 | 0.00 | 0.00 | 59 | 1016.6 |
| 20260506072503 | 13 | 327 | 3.2 | 4.8 | 0.00 | 0.00 | 0.00 | 59 | 1016.6 |
| 20260506072003 | 13 | 334 | 3.2 | 6.4 | 0.00 | 0.00 | 0.00 | 58 | 1016.7 |
| 20260506071503 | 13 | 331 | 3.2 | 6.4 | 0.00 | 0.00 | 0.00 | 57 | 1016.6 |
| 20260506071003 | 13 | 324 | 4.8 | 9.7 | 0.00 | 0.00 | 0.00 | 57 | 1016.4 |
| 20260506070503 | 13 | 323 | 4.8 | 9.7 | 0.00 | 0.00 | 0.00 | 58 | 1016.4 |
| 20260506062504 | 14 | 1 | 4.8 | 14.5 | 0.00 | 0.00 | 0.00 | 57 | 1015.8 |
| 20260506062003 | 14 | 357 | 6.4 | 14.5 | 0.00 | 0.00 | 0.00 | 57 | 1015.7 |
| 20260506061503 | 14 | 354 | 8.0 | 16.1 | 0.00 | 0.00 | 0.00 | 57 | 1015.7 |
| 20260506061003 | 14 | 353 | 8.0 | 16.1 | 0.00 | 0.00 | 0.00 | 57 | 1015.7 |
| 20260506060503 | 14 | 352 | 6.4 | 16.1 | 0.00 | 0.00 | 0.00 | 57 | 1015.6 |
| 20260506051003 | 15 | 346 | 6.4 | 12.9 | 0.00 | 0.00 | 0.00 | 55 | 1015.0 |
| 20260506050503 | 15 | 344 | 6.4 | 16.1 | 0.00 | 0.00 | 0.00 | 55 | 1015.0 |
| 20260506044503 | 15 | 344 | 8.0 | 16.1 | 0.00 | 0.00 | 0.00 | 55 | 1014.7 |
| 20260506044216 | 15 | 346 | 8.0 | 16.1 | 0.00 | 0.00 | 0.00 | 56 | 1014.7 |
| 20260506043717 | 15 | 355 | 6.4 | 14.5 | 0.00 | 0.00 | 0.00 | 56 | 1014.6 |
| 20260506043003 | 15 | 348 | 8.0 | 19.3 | 0.00 | 0.00 | 0.00 | 54 | 1014.5 |
| 20260506042503 | 16 | 339 | 9.7 | 19.3 | 0.00 | 0.00 | 0.00 | 52 | 1014.5 |
| 20260506042003 | 16 | 334 | 11.3 | 19.3 | 0.00 | 0.00 | 0.00 | 52 | 1014.6 |
| 20260506041503 | 16 | 334 | 9.7 | 22.5 | 0.00 | 0.00 | 0.00 | 52 | 1014.5 |
| 20260506041003 | 16 | 338 | 9.7 | 22.5 | 0.00 | 0.00 | 0.00 | 53 | 1014.5 |
| 20260506040503 | 16 | 339 | 9.7 | 19.3 | 0.00 | 0.00 | 0.00 | 52 | 1014.5 |
| 20260506040003 | 16 | 338 | 8.0 | 19.3 | 0.00 | 0.00 | 0.00 | 52 | 1014.4 |
| 20260506035717 | 16 | 338 | 9.7 | 19.3 | 0.00 | 0.00 | 0.00 | 52 | 1014.3 |
| 20260506035218 | 16 | 335 | 9.7 | 19.3 | 0.00 | 0.00 | 0.00 | 52 | 1014.2 |
| 20260506034503 | 17 | 328 | 11.3 | 19.3 | 0.00 | 0.00 | 0.00 | 51 | 1014.1 |
| 20260506034003 | 17 | 327 | 11.3 | 19.3 | 0.00 | 0.00 | 0.00 | 50 | 1014.0 |
| 20260506033503 | 17 | 329 | 11.3 | 19.3 | 0.00 | 0.00 | 0.00 | 50 | 1013.9 |
| 20260506033004 | 17 | 326 | 11.3 | 20.9 | 0.00 | 0.00 | 0.00 | 50 | 1013.8 |
| 20260506032718 | 17 | 326 | 11.3 | 22.5 | 0.00 | 0.00 | 0.00 | 50 | 1013.8 |
| 20260506032003 | 17 | 323 | 11.3 | 22.5 | 0.00 | 0.00 | 0.00 | 49 | 1013.7 |
| 20260506031503 | 17 | 319 | 11.3 | 24.1 | 0.00 | 0.00 | 0.00 | 49 | 1013.6 |
| 20260506031003 | 17 | 322 | 11.3 | 24.1 | 0.00 | 0.00 | 0.00 | 48 | 1013.5 |
| 20260506030503 | 18 | 325 | 11.3 | 27.4 | 0.00 | 0.00 | 0.00 | 48 | 1013.4 |
| 20260506030003 | 18 | 321 | 11.3 | 27.4 | 0.00 | 0.00 | 0.00 | 48 | 1013.3 |
| 20260506025716 | 18 | 321 | 9.7 | 24.1 | 0.00 | 0.00 | 0.00 | 48 | 1013.2 |
| 20260506025003 | 18 | 322 | 8.0 | 22.5 | 0.00 | 0.00 | 0.00 | 47 | 1013.1 |
| 20260506024503 | 18 | 321 | 9.7 | 17.7 | 0.00 | 0.00 | 0.00 | 46 | 1013.0 |
| 20260506024219 | 18 | 317 | 9.7 | 22.5 | 0.00 | 0.00 | 0.00 | 46 | 1012.9 |
| 20260506023503 | 19 | 313 | 11.3 | 24.1 | 0.00 | 0.00 | 0.00 | 45 | 1012.8 |
| 20260506023003 | 20 | 315 | 9.7 | 24.1 | 0.00 | 0.00 | 0.00 | 44 | 1012.8 |
| 20260506022503 | 20 | 312 | 8.0 | 20.9 | 0.00 | 0.00 | 0.00 | 44 | 1012.8 |
| 20260506022219 | 20 | 310 | 9.7 | 20.9 | 0.00 | 0.00 | 0.00 | 44 | 1012.8 |
| 20260506021503 | 20 | 308 | 9.7 | 20.9 | 0.00 | 0.00 | 0.00 | 43 | 1012.7 |
| 20260506021003 | 20 | 311 | 8.0 | 19.3 | 0.00 | 0.00 | 0.00 | 43 | 1012.6 |
| 20260506020718 | 20 | 308 | 9.7 | 24.1 | 0.00 | 0.00 | 0.00 | 42 | 1012.5 |
| 20260506020219 | 20 | 304 | 11.3 | 24.1 | 0.00 | 0.00 | 0.00 | 41 | 1012.5 |
| 20260506015503 | 21 | 307 | 9.7 | 29.0 | 0.00 | 0.00 | 0.00 | 41 | 1012.4 |
| 20260506015003 | 21 | 308 | 8.0 | 19.3 | 0.00 | 0.00 | 0.00 | 40 | 1012.4 |
| 20260506014503 | 21 | 310 | 11.3 | 25.7 | 0.00 | 0.00 | 0.00 | 40 | 1012.4 |
| 20260506014003 | 21 | 306 | 12.9 | 25.7 | 0.00 | 0.00 | 0.00 | 39 | 1012.4 |
| 20260506013503 | 21 | 305 | 11.3 | 25.7 | 0.00 | 0.00 | 0.00 | 39 | 1012.4 |
| 20260506013217 | 22 | 305 | 11.3 | 25.7 | 0.00 | 0.00 | 0.00 | 38 | 1012.4 |
| 20260506012503 | 22 | 305 | 11.3 | 24.1 | 0.00 | 0.00 | 0.00 | 38 | 1012.3 |
| 20260506012003 | 22 | 305 | 11.3 | 25.7 | 0.00 | 0.00 | 0.00 | 36 | 1012.3 |
| 20260506011503 | 22 | 310 | 9.7 | 25.7 | 0.00 | 0.00 | 0.00 | 36 | 1012.3 |
| 20260506011003 | 22 | 311 | 8.0 | 19.3 | 0.00 | 0.00 | 0.00 | 35 | 1012.2 |
| 20260506010503 | 23 | 307 | 8.0 | 22.5 | 0.00 | 0.00 | 0.00 | 33 | 1012.2 |
| 20260506010218 | 23 | 301 | 9.7 | 29.0 | 0.00 | 0.00 | 0.00 | 33 | 1012.1 |
| 20260506005503 | 23 | 306 | 11.3 | 29.0 | 0.00 | 0.00 | 0.00 | 32 | 1012.1 |
| 20260506005216 | 23 | 309 | 11.3 | 22.5 | 0.00 | 0.00 | 0.00 | 32 | 1012.1 |
| 20260506004504 | 23 | 315 | 8.0 | 24.1 | 0.00 | 0.00 | 0.00 | 32 | 1012.0 |
| 20260506004003 | 22 | 311 | 6.4 | 24.1 | 0.00 | 0.00 | 0.00 | 32 | 1012.0 |
| 20260506003503 | 22 | 292 | 4.8 | 19.3 | 0.00 | 0.00 | 0.00 | 32 | 1011.9 |
| 20260506003003 | 22 | 297 | 4.8 | 12.9 | 0.00 | 0.00 | 0.00 | 31 | 1011.8 |
| 20260506002503 | 22 | 300 | 6.4 | 16.1 | 0.00 | 0.00 | 0.00 | 31 | 1011.9 |
| 20260506002003 | 22 | 310 | 6.4 | 16.1 | 0.00 | 0.00 | 0.00 | 30 | 1011.8 |
| 20260506001503 | 22 | 331 | 4.8 | 16.1 | 0.00 | 0.00 | 0.00 | 30 | 1011.8 |
| 20260506001216 | 22 | 342 | 4.8 | 16.1 | 0.00 | 0.00 | 0.00 | 30 | 1011.8 |
| 20260506000717 | 22 | 323 | 4.8 | 12.9 | 0.00 | 0.00 | 0.00 | 30 | 1011.8 |
| 20260506000003 | 22 | 309 | 4.8 | 11.3 | 0.00 | 0.00 | 0.00 | 29 | 1011.8 |
| 20260505235503 | 23 | 325 | 6.4 | 19.3 | 0.00 | 0.00 | 0.00 | 28 | 1011.8 |
| 20260505235003 | 23 | 334 | 8.0 | 20.9 | 0.00 | 0.00 | 0.00 | 28 | 1011.8 |
| 20260505234504 | 24 | 335 | 8.0 | 20.9 | 0.00 | 0.00 | 0.00 | 27 | 1011.8 |
| 20260505234218 | 25 | 339 | 8.0 | 14.5 | 0.00 | 0.00 | 0.00 | 28 | 1011.8 |
| 20260505233719 | 23 | 346 | 8.0 | 17.7 | 0.00 | 0.00 | 0.00 | 28 | 1011.8 |
| 20260505233003 | 23 | 356 | 8.0 | 17.7 | 0.00 | 0.00 | 0.00 | 28 | 1011.8 |
| 20260505232503 | 23 | 353 | 9.7 | 19.3 | 0.00 | 0.00 | 0.00 | 27 | 1011.8 |
| 20260505232003 | 23 | 348 | 8.0 | 19.3 | 0.00 | 0.00 | 0.00 | 28 | 1011.7 |
| 20260505231503 | 23 | 360 | 4.8 | 14.5 | 0.00 | 0.00 | 0.00 | 29 | 1011.8 |
| 20260505231003 | 22 | 354 | 4.8 | 14.5 | 0.00 | 0.00 | 0.00 | 29 | 1011.8 |
| 20260505230503 | 22 | 350 | 6.4 | 14.5 | 0.00 | 0.00 | 0.00 | 29 | 1011.8 |
| 20260505230003 | 22 | 359 | 4.8 | 12.9 | 0.00 | 0.00 | 0.00 | 29 | 1011.8 |
| 20260505225503 | 22 | 7 | 4.8 | 12.9 | 0.00 | 0.00 | 0.00 | 28 | 1011.9 |
| 20260505225003 | 22 | 23 | 4.8 | 12.9 | 0.00 | 0.00 | 0.00 | 28 | 1011.9 |
| 20260505224503 | 22 | 42 | 4.8 | 9.7 | 0.00 | 0.00 | 0.00 | 28 | 1011.9 |
| 20260505224003 | 22 | 15 | 4.8 | 12.9 | 0.00 | 0.00 | 0.00 | 28 | 1011.9 |
| 20260505223719 | 22 | 356 | 6.4 | 12.9 | 0.00 | 0.00 | 0.00 | 27 | 1011.9 |
| 20260505223003 | 23 | 8 | 4.8 | 12.9 | 0.00 | 0.00 | 0.00 | 25 | 1011.9 |
| 20260505222503 | 24 | 40 | 4.8 | 12.9 | 0.00 | 0.00 | 0.00 | 25 | 1011.9 |
| 20260505222003 | 25 | 28 | 8.0 | 16.1 | 0.00 | 0.00 | 0.00 | 26 | 1011.9 |
| 20260505221503 | 24 | 24 | 6.4 | 16.1 | 0.00 | 0.00 | 0.00 | 28 | 1012.0 |
| 20260505221003 | 23 | 50 | 4.8 | 16.1 | 0.00 | 0.00 | 0.00 | 28 | 1012.0 |
| 20260505220716 | 24 | 50 | 4.8 | 16.1 | 0.00 | 0.00 | 0.00 | 28 | 1012.0 |
| 20260505220003 | 23 | 17 | 8.0 | 14.5 | 0.00 | 0.00 | 0.00 | 28 | 1012.1 |
| 20260505215503 | 24 | 1 | 8.0 | 19.3 | 0.00 | 0.00 | 0.00 | 27 | 1012.1 |
| 20260505215003 | 24 | 5 | 6.4 | 19.3 | 0.00 | 0.00 | 0.00 | 26 | 1012.1 |
| 20260505214503 | 23 | 20 | 8.0 | 19.3 | 0.00 | 0.00 | 0.00 | 27 | 1012.1 |
| 20260505214003 | 25 | 25 | 8.0 | 19.3 | 0.00 | 0.00 | 0.00 | 26 | 1012.2 |
| 20260505213503 | 23 | 23 | 8.0 | 25.7 | 0.00 | 0.00 | 0.00 | 30 | 1012.2 |
| 20260505213003 | 23 | 27 | 9.7 | 25.7 | 0.00 | 0.00 | 0.00 | 29 | 1012.2 |
| 20260505212716 | 23 | 25 | 8.0 | 25.7 | 0.00 | 0.00 | 0.00 | 27 | 1012.1 |
| 20260505212217 | 23 | 25 | 4.8 | 19.3 | 0.00 | 0.00 | 0.00 | 26 | 1012.1 |
| 20260505211503 | 24 | 23 | 6.4 | 16.1 | 0.00 | 0.00 | 0.00 | 26 | 1012.2 |
| 20260505211003 | 23 | 9 | 6.4 | 16.1 | 0.00 | 0.00 | 0.00 | 28 | 1012.2 |
| 20260505210503 | 23 | 352 | 8.0 | 19.3 | 0.00 | 0.00 | 0.00 | 30 | 1012.3 |
| 20260505210217 | 23 | 347 | 9.7 | 19.3 | 0.00 | 0.00 | 0.00 | 30 | 1012.4 |
| 20260505205503 | 22 | 342 | 8.0 | 19.3 | 0.00 | 0.00 | 0.00 | 28 | 1012.4 |
| 20260505205003 | 22 | 351 | 6.4 | 19.3 | 0.00 | 0.00 | 0.00 | 29 | 1012.4 |
| 20260505204503 | 23 | 360 | 8.0 | 16.1 | 0.00 | 0.00 | 0.00 | 27 | 1012.5 |
| 20260505204217 | 22 | 358 | 6.4 | 14.5 | 0.00 | 0.00 | 0.00 | 29 | 1012.5 |
| 20260505203718 | 22 | 12 | 6.4 | 20.9 | 0.00 | 0.00 | 0.00 | 29 | 1012.5 |
| 20260505203003 | 23 | 35 | 8.0 | 20.9 | 0.00 | 0.00 | 0.00 | 29 | 1012.6 |
| 20260505202503 | 22 | 46 | 4.8 | 17.7 | 0.00 | 0.00 | 0.00 | 30 | 1012.6 |
| 20260505202003 | 22 | 31 | 4.8 | 17.7 | 0.00 | 0.00 | 0.00 | 31 | 1012.6 |
| 20260505201503 | 21 | 7 | 6.4 | 17.7 | 0.00 | 0.00 | 0.00 | 32 | 1012.7 |
| 20260505201003 | 22 | 358 | 8.0 | 22.5 | 0.00 | 0.00 | 0.00 | 30 | 1012.7 |
| 20260505200503 | 22 | 353 | 6.4 | 22.5 | 0.00 | 0.00 | 0.00 | 32 | 1012.7 |
| 20260505200003 | 22 | 23 | 6.4 | 17.7 | 0.00 | 0.00 | 0.00 | 32 | 1012.8 |
| 20260505195718 | 22 | 29 | 8.0 | 17.7 | 0.00 | 0.00 | 0.00 | 32 | 1012.6 |
| 20260505195003 | 22 | 19 | 8.0 | 17.7 | 0.00 | 0.00 | 0.00 | 31 | 1012.6 |
| 20260505194503 | 22 | 12 | 8.0 | 17.7 | 0.00 | 0.00 | 0.00 | 31 | 1012.7 |
| 20260505194003 | 21 | 3 | 4.8 | 16.1 | 0.00 | 0.00 | 0.00 | 34 | 1012.6 |
| 20260505193503 | 21 | 359 | 4.8 | 16.1 | 0.00 | 0.00 | 0.00 | 34 | 1012.7 |
| 20260505193003 | 21 | 3 | 4.8 | 12.9 | 0.00 | 0.00 | 0.00 | 32 | 1012.6 |
| 20260505192503 | 21 | 29 | 4.8 | 12.9 | 0.00 | 0.00 | 0.00 | 35 | 1012.6 |
| 20260505192003 | 21 | 47 | 4.8 | 12.9 | 0.00 | 0.00 | 0.00 | 35 | 1012.6 |
| 20260505191717 | 21 | 46 | 4.8 | 12.9 | 0.00 | 0.00 | 0.00 | 34 | 1012.7 |
| 20260505191004 | 21 | 63 | 3.2 | 12.9 | 0.00 | 0.00 | 0.00 | 36 | 1012.6 |
| 20260505190503 | 20 | 177 | 4.8 | 11.3 | 0.00 | 0.00 | 0.00 | 36 | 1012.6 |
| 20260505190004 | 21 | 193 | 6.4 | 12.9 | 0.00 | 0.00 | 0.00 | 35 | 1012.5 |
| 20260505185503 | 21 | 234 | 4.8 | 12.9 | 0.00 | 0.00 | 0.00 | 37 | 1012.4 |
| 20260505185003 | 20 | 257 | 4.8 | 11.3 | 0.00 | 0.00 | 0.00 | 39 | 1012.5 |
| 20260505184503 | 18 | 248 | 6.4 | 17.7 | 0.00 | 0.00 | 0.00 | 41 | 1012.5 |
| 20260505184003 | 20 | 244 | 8.0 | 17.7 | 0.00 | 0.00 | 0.00 | 38 | 1012.6 |
| 20260505183717 | 21 | 233 | 8.0 | 14.5 | 0.00 | 0.00 | 0.00 | 38 | 1012.6 |
| 20260505183003 | 20 | 230 | 8.0 | 16.1 | 0.00 | 0.00 | 0.00 | 39 | 1012.7 |
| 20260505182719 | 20 | 229 | 9.7 | 17.7 | 0.00 | 0.00 | 0.00 | 40 | 1012.7 |
| 20260505182003 | 19 | 223 | 8.0 | 17.7 | 0.00 | 0.00 | 0.00 | 45 | 1012.7 |
| 20260505181717 | 19 | 224 | 8.0 | 16.1 | 0.00 | 0.00 | 0.00 | 42 | 1012.8 |
| 20260505181003 | 18 | 224 | 6.4 | 14.5 | 0.00 | 0.00 | 0.00 | 49 | 1012.8 |
| 20260505180719 | 18 | 218 | 6.4 | 14.5 | 0.00 | 0.00 | 0.00 | 47 | 1012.8 |
| 20260505180216 | 17 | 217 | 6.4 | 14.5 | 0.00 | 0.00 | 0.00 | 51 | 1012.8 |
| 20260505175503 | 18 | 226 | 6.4 | 11.3 | 0.00 | 0.00 | 0.00 | 49 | 1012.8 |
| 20260505175003 | 17 | 224 | 6.4 | 12.9 | 0.00 | 0.00 | 0.00 | 51 | 1012.8 |
| 20260505174503 | 17 | 228 | 6.4 | 12.9 | 0.00 | 0.00 | 0.00 | 52 | 1012.8 |
| 20260505174003 | 17 | 239 | 4.8 | 8.0 | 0.00 | 0.00 | 0.00 | 51 | 1012.8 |
| 20260505173503 | 17 | 252 | 3.2 | 8.0 | 0.00 | 0.00 | 0.00 | 53 | 1012.8 |
| 20260505173003 | 16 | 239 | 4.8 | 9.7 | 0.00 | 0.00 | 0.00 | 54 | 1012.8 |
| 20260505172719 | 16 | 230 | 4.8 | 9.7 | 0.00 | 0.00 | 0.00 | 54 | 1012.8 |
| 20260505172003 | 16 | 245 | 4.8 | 11.3 | 0.00 | 0.00 | 0.00 | 54 | 1012.9 |
| 20260505171503 | 15 | 245 | 4.8 | 11.3 | 0.00 | 0.00 | 0.00 | 54 | 1012.9 |
| 20260505171003 | 15 | 214 | 4.8 | 8.0 | 0.00 | 0.00 | 0.00 | 57 | 1012.9 |
| 20260505170503 | 15 | 190 | 4.8 | 9.7 | 0.00 | 0.00 | 0.00 | 55 | 1012.9 |
| 20260505170003 | 14 | 183 | 4.8 | 9.7 | 0.00 | 0.00 | 0.00 | 59 | 1012.8 |
| 20260505165503 | 14 | 207 | 4.8 | 8.0 | 0.00 | 0.00 | 0.00 | 58 | 1012.9 |
| 20260505165003 | 13 | 220 | 3.2 | 8.0 | 0.00 | 0.00 | 0.00 | 61 | 1012.9 |
| 20260505164503 | 13 | 205 | 3.2 | 6.4 | 0.00 | 0.00 | 0.00 | 63 | 1012.9 |
| 20260505164003 | 12 | 209 | 4.8 | 8.0 | 0.00 | 0.00 | 0.00 | 65 | 1012.8 |
| 20260505163503 | 13 | 208 | 4.8 | 8.0 | 0.00 | 0.00 | 0.00 | 64 | 1012.9 |
| 20260505163003 | 12 | 186 | 4.8 | 8.0 | 0.00 | 0.00 | 0.00 | 67 | 1012.8 |
| 20260505162503 | 12 | 177 | 4.8 | 8.0 | 0.00 | 0.00 | 0.00 | 67 | 1012.9 |
| 20260505162219 | 12 | 168 | 4.8 | 8.0 | 0.00 | 0.00 | 0.00 | 68 | 1012.9 |
| 20260505161503 | 11 | 183 | 3.2 | 9.7 | 0.00 | 0.00 | 0.00 | 70 | 1012.8 |
| 20260505161003 | 12 | 190 | 3.2 | 8.0 | 0.00 | 0.00 | 0.00 | 68 | 1012.9 |
| 20260505160503 | 11 | 181 | 4.8 | 8.0 | 0.00 | 0.00 | 0.00 | 68 | 1012.8 |
| 20260505153003 | 10 | 162 | 3.2 | 8.0 | 0.00 | 0.00 | 0.00 | 74 | 1012.7 |
| 20260505152718 | 10 | 159 | 3.2 | 8.0 | 0.00 | 0.00 | 0.00 | 74 | 1012.7 |
| 20260505152003 | 10 | 161 | 3.2 | 9.7 | 0.00 | 0.00 | 0.00 | 75 | 1012.6 |
| 20260505151503 | 10 | 157 | 3.2 | 9.7 | 0.00 | 0.00 | 0.00 | 75 | 1012.6 |
| 20260505151003 | 10 | 144 | 3.2 | 6.4 | 0.00 | 0.00 | 0.00 | 75 | 1012.6 |
| 20260505150503 | 9 | 112 | 1.6 | 4.8 | 0.00 | 0.00 | 0.00 | 75 | 1012.5 |
| 20260505140503 | 8 | 62 | 3.2 | 4.8 | 0.00 | 0.00 | 0.00 | 78 | 1012.1 |
| 20260505130218 | 7 | 45 | 1.6 | 3.2 | 0.00 | 0.00 | 0.00 | 78 | 1011.5 |
| 20260505125003 | 7 | 9 | 1.6 | 4.8 | 0.00 | 0.00 | 0.00 | 56 | 1011.4 |
| 20260505124717 | 8 | 9 | 3.2 | 4.8 | 0.00 | 0.00 | 0.00 | 56 | 1011.4 |
| 20260505124003 | 8 | 5 | 3.2 | 6.4 | 0.00 | 0.00 | 0.00 | 55 | 1011.3 |
| 20260505123503 | 8 | 353 | 3.2 | 6.4 | 0.00 | 0.00 | 0.00 | 56 | 1011.2 |
| 20260505123003 | 8 | 346 | 3.2 | 6.4 | 0.00 | 0.00 | 0.00 | 57 | 1011.2 |
| 20260505122717 | 7 | 342 | 3.2 | 6.4 | 0.00 | 0.00 | 0.00 | 58 | 1011.2 |
| 20260505122003 | 7 | 357 | 4.8 | 8.0 | 0.00 | 0.00 | 0.00 | 61 | 1011.2 |
| 20260505121719 | 7 | 8 | 4.8 | 8.0 | 0.00 | 0.00 | 0.00 | 63 | 1011.2 |
| 20260505121003 | 7 | 61 | 3.2 | 6.4 | 0.00 | 0.00 | 0.00 | 77 | 1011.2 |
| 20260505120503 | 7 | 74 | 1.6 | 4.8 | 0.00 | 0.00 | 0.00 | 80 | 1011.1 |
| 20260505120004 | 7 | 71 | 1.6 | 3.2 | 0.00 | 0.00 | 0.00 | 80 | 1011.1 |
| 20260505115503 | 7 | 71 | 0.0 | 3.2 | 0.00 | 0.00 | 0.00 | 79 | 1011.1 |
| 20260505115003 | 7 | 71 | 0.0 | 3.2 | 0.00 | 0.00 | 0.00 | 79 | 1011.1 |
| 20260505114503 | 7 | 66 | 1.6 | 3.2 | 0.00 | 0.00 | 0.00 | 76 | 1011.1 |
| 20260505114003 | 7 | 53 | 1.6 | 3.2 | 0.00 | 0.00 | 0.00 | 74 | 1011.1 |
| 20260505113718 | 7 | 24 | 1.6 | 4.8 | 0.00 | 0.00 | 0.00 | 71 | 1011.0 |
| 20260505113003 | 8 | 13 | 3.2 | 6.4 | 0.00 | 0.00 | 0.00 | 57 | 1010.9 |
| 20260505112716 | 8 | 19 | 3.2 | 6.4 | 0.00 | 0.00 | 0.00 | 57 | 1010.9 |
| 20260505112003 | 8 | 23 | 3.2 | 4.8 | 0.00 | 0.00 | 0.00 | 66 | 1010.9 |
| 20260505111503 | 8 | 13 | 4.8 | 6.4 | 0.00 | 0.00 | 0.00 | 59 | 1010.9 |
| 20260505111003 | 9 | 13 | 4.8 | 6.4 | 0.00 | 0.00 | 0.00 | 54 | 1010.9 |
| 20260505110503 | 9 | 10 | 4.8 | 8.0 | 0.00 | 0.00 | 0.00 | 53 | 1010.9 |
| 20260505102003 | 11 | 345 | 6.4 | 16.1 | 0.00 | 0.00 | 0.00 | 51 | 1010.6 |
| 20260505101503 | 11 | 352 | 8.0 | 17.7 | 0.00 | 0.00 | 0.00 | 50 | 1010.5 |
| 20260505101219 | 11 | 352 | 8.0 | 20.9 | 0.00 | 0.00 | 0.00 | 50 | 1010.5 |
| 20260505100503 | 11 | 350 | 9.7 | 20.9 | 0.00 | 0.00 | 0.00 | 50 | 1010.3 |
| 20260505100003 | 11 | 352 | 9.7 | 20.9 | 0.00 | 0.00 | 0.00 | 50 | 1010.3 |
| 20260505095503 | 11 | 351 | 9.7 | 20.9 | 0.00 | 0.00 | 0.00 | 50 | 1010.2 |
| 20260505095003 | 11 | 353 | 9.7 | 19.3 | 0.00 | 0.00 | 0.00 | 50 | 1010.1 |
| 20260505094503 | 11 | 355 | 8.0 | 17.7 | 0.00 | 0.00 | 0.00 | 50 | 1010.2 |
| 20260505094003 | 11 | 351 | 8.0 | 22.5 | 0.00 | 0.00 | 0.00 | 50 | 1010.2 |
| 20260505093503 | 11 | 355 | 8.0 | 22.5 | 0.00 | 0.00 | 0.00 | 49 | 1010.2 |
| 20260505093004 | 11 | 357 | 11.3 | 20.9 | 0.00 | 0.00 | 0.00 | 49 | 1010.1 |
| 20260505092716 | 11 | 357 | 11.3 | 20.9 | 0.00 | 0.00 | 0.00 | 48 | 1010.1 |
| 20260505092003 | 11 | 354 | 9.7 | 22.5 | 0.00 | 0.00 | 0.00 | 49 | 1010.0 |
| 20260505091503 | 11 | 357 | 11.3 | 22.5 | 0.00 | 0.00 | 0.00 | 49 | 1009.9 |
| 20260505091003 | 11 | 358 | 11.3 | 22.5 | 0.00 | 0.00 | 0.00 | 49 | 1010.0 |
| 20260505090503 | 11 | 357 | 11.3 | 22.5 | 0.00 | 0.00 | 0.00 | 49 | 1009.9 |
| 20260505090003 | 11 | 359 | 12.9 | 24.1 | 0.00 | 0.00 | 0.00 | 49 | 1010.0 |
| 20260505085717 | 11 | 1 | 14.5 | 27.4 | 0.00 | 0.00 | 0.00 | 48 | 1010.0 |
| 20260505085003 | 11 | 360 | 14.5 | 27.4 | 0.00 | 0.00 | 0.00 | 48 | 1009.8 |
| 20260505084719 | 11 | 1 | 16.1 | 32.2 | 0.00 | 0.00 | 0.00 | 48 | 1009.7 |
| 20260505084003 | 12 | 4 | 16.1 | 32.2 | 0.00 | 0.00 | 0.00 | 48 | 1009.8 |
| 20260505083503 | 12 | 2 | 14.5 | 27.4 | 0.00 | 0.00 | 0.00 | 48 | 1009.8 |
| 20260505083218 | 12 | 2 | 14.5 | 25.7 | 0.00 | 0.00 | 0.00 | 48 | 1009.9 |
| 20260505082503 | 12 | 357 | 12.9 | 25.7 | 0.00 | 0.00 | 0.00 | 47 | 1009.9 |
| 20260505082003 | 12 | 354 | 14.5 | 29.0 | 0.00 | 0.00 | 0.00 | 47 | 1009.9 |
| 20260505081503 | 12 | 360 | 16.1 | 32.2 | 0.00 | 0.00 | 0.00 | 47 | 1009.9 |